TimeCST,TemperatureF,Dew PointF,Humidity,Sea Level PressureIn,VisibilityMPH,Wind Direction,Wind SpeedMPH,Gust SpeedMPH,PrecipitationIn,Events,Conditions,WindDirDegrees,DateUTC
12:13 AM,6.8,-2.2,67,29.93,10.0,NW,6.9,-,N/A,,Clear,310,2013-01-13 06:13:00
12:33 AM,6.8,-2.2,67,29.92,10.0,Calm,Calm,-,N/A,,Scattered Clouds,0,2013-01-13 06:33:00
12:53 AM,6.8,-2.2,67,29.93,10.0,NNW,3.5,-,N/A,,Scattered Clouds,340,2013-01-13 06:53:00
1:13 AM,6.8,-4.0,61,29.93,10.0,NW,5.8,-,N/A,,Clear,320,2013-01-13 07:13:00
1:33 AM,5.0,-4.0,66,29.94,10.0,NW,4.6,-,N/A,,Clear,320,2013-01-13 07:33:00
1:53 AM,3.2,-4.0,72,29.95,10.0,Calm,Calm,-,N/A,,Clear,0,2013-01-13 07:53:00
2:13 AM,3.2,-4.0,72,29.95,10.0,Calm,Calm,-,N/A,,Clear,0,2013-01-13 08:13:00
2:33 AM,3.2,-4.0,72,29.95,10.0,Calm,Calm,-,N/A,,Clear,0,2013-01-13 08:33:00
2:53 AM,3.2,-4.0,72,29.96,10.0,NW,3.5,-,N/A,,Clear,310,2013-01-13 08:53:00
3:13 AM,3.2,-5.8,66,29.96,10.0,NW,3.5,-,N/A,,Clear,320,2013-01-13 09:13:00
3:33 AM,3.2,-5.8,66,29.96,10.0,Calm,Calm,-,N/A,,Clear,0,2013-01-13 09:33:00
3:53 AM,1.4,-5.8,72,29.95,10.0,Calm,Calm,-,N/A,,Clear,0,2013-01-13 09:53:00
4:13 AM,1.4,-5.8,72,29.95,10.0,Calm,Calm,-,N/A,,Clear,0,2013-01-13 10:13:00
4:33 AM,1.4,-5.8,72,29.94,10.0,Calm,Calm,-,N/A,,Clear,0,2013-01-13 10:33:00
4:53 AM,-0.4,-5.8,78,29.94,10.0,Calm,Calm,-,N/A,,Clear,0,2013-01-13 10:53:00
5:13 AM,-0.4,-5.8,78,29.94,10.0,Calm,Calm,-,N/A,,Clear,0,2013-01-13 11:13:00
5:33 AM,-0.4,-5.8,78,29.93,10.0,Calm,Calm,-,N/A,,Clear,0,2013-01-13 11:33:00
5:53 AM,-0.4,-5.8,78,29.94,10.0,Calm,Calm,-,N/A,,Clear,0,2013-01-13 11:53:00
6:13 AM,-0.4,-7.6,72,29.95,10.0,Calm,Calm,-,N/A,,Clear,0,2013-01-13 12:13:00
6:33 AM,-0.4,-7.6,72,29.96,10.0,Calm,Calm,-,N/A,,Clear,0,2013-01-13 12:33:00
6:53 AM,-0.4,-7.6,72,29.97,10.0,Calm,Calm,-,N/A,,Clear,0,2013-01-13 12:53:00
7:13 AM,-0.4,-7.6,72,29.98,10.0,Calm,Calm,-,N/A,,Clear,0,2013-01-13 13:13:00
7:33 AM,-0.4,-7.6,72,29.99,10.0,Calm,Calm,-,N/A,,Clear,0,2013-01-13 13:33:00
7:53 AM,-0.4,-7.6,72,30.00,10.0,Calm,Calm,-,N/A,,Clear,0,2013-01-13 13:53:00
8:13 AM,1.4,-7.6,66,30.00,10.0,NNW,5.8,-,N/A,,Clear,340,2013-01-13 14:13:00
8:33 AM,1.4,-5.8,72,30.00,10.0,NNW,5.8,-,N/A,,Clear,330,2013-01-13 14:33:00
8:53 AM,3.2,-5.8,66,30.01,10.0,NNW,5.8,-,N/A,,Clear,330,2013-01-13 14:53:00
9:13 AM,5.0,-5.8,61,30.02,10.0,NNW,6.9,-,N/A,,Clear,330,2013-01-13 15:13:00
9:33 AM,6.8,-5.8,56,30.02,10.0,NNW,3.5,-,N/A,,Clear,330,2013-01-13 15:33:00
9:53 AM,6.8,-5.8,56,30.02,10.0,NW,5.8,-,N/A,,Clear,310,2013-01-13 15:53:00
10:14 AM,6.8,-5.8,56,30.02,10.0,NW,3.5,-,N/A,,Clear,320,2013-01-13 16:14:00
10:33 AM,8.6,-5.8,52,30.00,10.0,NNW,4.6,-,N/A,,Clear,330,2013-01-13 16:33:00
10:53 AM,8.6,-5.8,52,29.99,10.0,NNW,8.1,-,N/A,,Clear,330,2013-01-13 16:53:00
11:33 AM,8.6,-4.0,57,29.97,10.0,NW,6.9,-,N/A,,Scattered Clouds,320,2013-01-13 17:33:00
11:48 AM,8.6,-4.0,57,29.96,3.0,NW,5.8,-,N/A,Snow,Light Snow,320,2013-01-13 17:48:00
11:55 AM,8.6,-4.0,57,29.96,2.5,Calm,Calm,-,N/A,Snow,Light Snow,0,2013-01-13 17:55:00
12:13 PM,8.6,-2.2,62,29.95,1.8,WNW,3.5,-,N/A,Snow,Light Snow,300,2013-01-13 18:13:00
12:33 PM,8.6,-2.2,62,29.94,1.8,WNW,5.8,-,N/A,Snow,Light Snow,300,2013-01-13 18:33:00
12:53 PM,8.6,-2.2,62,29.93,1.8,NNW,4.6,-,N/A,Snow,Light Snow,340,2013-01-13 18:53:00
1:13 PM,10.4,-2.2,57,29.93,3.0,NW,4.6,-,N/A,,Haze,310,2013-01-13 19:13:00
1:33 PM,10.4,-2.2,57,29.92,4.0,NW,3.5,-,N/A,,Haze,310,2013-01-13 19:33:00
1:53 PM,10.4,-2.2,57,29.93,5.0,NW,6.9,-,N/A,,Haze,320,2013-01-13 19:53:00
2:13 PM,10.4,-0.4,62,29.94,2.0,Calm,Calm,-,N/A,Snow,Light Snow,0,2013-01-13 20:13:00
2:33 PM,10.4,-0.4,62,29.95,2.5,NNW,4.6,-,N/A,Snow,Light Snow,330,2013-01-13 20:33:00
2:53 PM,10.4,-0.4,62,29.96,1.5,NNW,5.8,-,N/A,Snow,Light Snow,330,2013-01-13 20:53:00
3:13 PM,10.4,-0.4,62,29.96,4.0,North,-9999.0,-,N/A,,Haze,0,2013-01-13 21:13:00
3:33 PM,10.4,-0.4,62,29.97,5.0,NNW,4.6,-,N/A,Snow,Light Snow,330,2013-01-13 21:33:00
3:53 PM,10.4,-0.4,62,29.97,4.0,WNW,4.6,-,N/A,,Haze,300,2013-01-13 21:53:00
4:13 PM,-9999,-9999,N/A,-9999,2.5,NW,4.6,-,N/A,,Unknown,320,2013-01-13 22:13:00
4:33 PM,8.6,-0.4,67,29.97,1.8,Calm,Calm,-,N/A,Snow,Light Snow,0,2013-01-13 22:33:00
4:53 PM,8.6,-0.4,67,29.97,4.0,Calm,Calm,-,N/A,Snow,Light Snow,0,2013-01-13 22:53:00
5:13 PM,8.6,-0.4,67,29.98,4.0,Calm,Calm,-,N/A,Snow,Light Snow,0,2013-01-13 23:13:00
5:33 PM,6.8,-2.2,67,29.98,7.0,NW,6.9,-,N/A,,Overcast,320,2013-01-13 23:33:00
5:53 PM,6.8,-2.2,67,29.98,10.0,Calm,Calm,-,N/A,,Overcast,0,2013-01-13 23:53:00
6:13 PM,6.8,-2.2,67,29.98,10.0,NW,4.6,-,N/A,,Overcast,320,2013-01-14 00:13:00
6:33 PM,6.8,-2.2,67,29.99,10.0,NW,3.5,-,N/A,,Overcast,310,2013-01-14 00:33:00
6:53 PM,6.8,-2.2,67,29.99,10.0,NW,4.6,-,N/A,,Overcast,320,2013-01-14 00:53:00
7:13 PM,6.8,-2.2,67,29.99,10.0,WNW,3.5,-,N/A,,Overcast,300,2013-01-14 01:13:00
7:33 PM,6.8,-4.0,61,29.99,10.0,NW,6.9,-,N/A,,Overcast,320,2013-01-14 01:33:00
7:53 PM,5.0,-5.8,61,29.99,10.0,NW,9.2,19.6,N/A,,Scattered Clouds,320,2013-01-14 01:53:00
8:13 PM,3.2,-5.8,66,30.00,10.0,NW,9.2,-,N/A,,Clear,310,2013-01-14 02:13:00
8:33 PM,3.2,-5.8,66,30.00,10.0,NW,9.2,-,N/A,,Clear,310,2013-01-14 02:33:00
8:53 PM,3.2,-5.8,66,30.02,10.0,NW,4.6,-,N/A,,Clear,320,2013-01-14 02:53:00
9:14 PM,3.2,-5.8,66,30.02,10.0,NW,6.9,-,N/A,,Clear,320,2013-01-14 03:14:00
9:33 PM,3.2,-5.8,66,30.03,10.0,NW,5.8,-,N/A,,Clear,320,2013-01-14 03:33:00
9:53 PM,3.2,-5.8,66,30.03,10.0,NW,4.6,-,N/A,,Clear,310,2013-01-14 03:53:00
10:33 PM,1.4,-5.8,72,30.04,10.0,NW,8.1,-,N/A,,Clear,320,2013-01-14 04:33:00
10:53 PM,3.2,-5.8,66,30.04,10.0,WNW,4.6,-,N/A,,Mostly Cloudy,300,2013-01-14 04:53:00
11:33 PM,3.2,-5.8,66,30.05,10.0,WNW,3.5,-,N/A,,Overcast,300,2013-01-14 05:33:00
11:53 PM,3.2,-5.8,66,30.06,10.0,WNW,4.6,-,N/A,,Mostly Cloudy,300,2013-01-14 05:53:00